Погода в Лапоткове

Россия / Тульская область     53°50′28″N   37°25′31″E
темп.,
°C
ветер,
м/с
пор.,
м/с
влажн.,
%
обл.,
%
осадки,
мм/ч
давл.,
гПа
погр.,
м
2 декабря, чт
чт200:00−4з597395 0.0 9981048
03:00−6зсз610735 0.1 1001702
06:00−6з510755 0.0 1003615
09:00−5юз49865 0.0 1005439
12:00−3ююз51075100 0.0 1004521
15:00−2ю71472100 0.0 1002695
18:00−2ююз81695100 1.8 1001697
21:000юз71597100 3.2 1001570
3 декабря, пт
пт300:00+1юз61397100 0.2 1002527
03:00+2ююз71495100 0.2 1002402
06:00+1юз61493100 0.0 1003389
09:00+1юз61493100 0.0 1005382
12:00+2ююз5119388 0.0 1005345
15:00+2ю61393100 0.0 1004386
18:00+4ю81690100 0.0 1002797
21:00+4ююз81592100 0.3 1000915
4 декабря, сб
сб400:000зсз61198100 3.4 1002523
03:00−1з51093100 5.1 1005633
06:00−3зюз511905 0.0 1007400
09:00−3юз61387100 0.0 1009470
12:00−2зюз6118680 0.0 1010624
15:00−3з61082100 0.1 1012846
18:00−2з5108178 0.1 1013807
21:00−3з48905 0.1 1015401
5 декабря, вс
вс500:00−4зюз37925 0.0 1016301
03:00−4зюз2492100 0.0 1017210
06:00−4юз1291100 0.0 1018122
09:00−3ю2388100 0.0 1019201
12:00−2ююв3482100 0.0 1019302
15:00−2юв3586100 0.0 1019205
18:00−3юв3786100 0.0 1020216
21:00−3юв4982100 0.0 1020287
6 декабря, пн
пн600:00−2юв51276100 0.0 1020381
03:00−2вюв51274100 0.0 1020408
06:00−2юв61373100 0.0 1020465
09:00−3вюв71493100 0.2 1020458
12:00−2юв61396100 1.1 1020463
15:00−1юв51197100 2.6 1020395
18:00−1юв51197100 0.8 1020345
21:000юв51197100 1.1 1020335